{"data":{"norad_id":66483,"intl_designator":"2025-262AD","name":"STARLINK-35654","alt_names":[],"object_type":"PAYLOAD","status":"ACTIVE","operator":null,"country":"US","launch_date":"2025-11-15","launch_site_code":"AFETR","launch_vehicle":null,"mission":null,"orbit_class":"UNKNOWN","rcs_meters":null,"size_class":null,"mass_kg":null,"dimensions":null,"purposes":["comms"],"wikipedia_slug":null,"has_3d_model":false,"image_url":null,"decayed_at":null,"tle_current":{"epoch":"2026-05-25T05:16:16.481280Z","epoch_age_seconds":52230,"freshness":"FRESH","line1":"1 66483U 25262AD  26145.21963520  .00021714  00000+0  79585-3 0  9991","line2":"2 66483  43.0009 223.7070 0001806 276.6748  83.3898 15.27596390 30617","mean_motion":15.2759639,"eccentricity":0.0001806,"inclination_deg":43.0009,"raan_deg":223.707,"arg_perigee_deg":276.6748,"mean_anomaly_deg":83.3898,"bstar":0.00079585,"rev_number":3061,"period_min":94.26573729989,"perigee_km":481.76089757657,"apogee_km":484.2391402678,"semimajor_km":6861.1370189222,"source":"CELESTRAK","updated_at":"2026-05-25T13:38:21.240946Z"}}}